Time,TemperatureF,DewpointF,PressureIn,WindDirection,WindDirectionDegrees,WindSpeedMPH,WindSpeedGustMPH,Humidity,HourlyPrecipIn,Conditions,Clouds,dailyrainin,SoftwareType,DateUTC
2013-07-22 00:02:00,66.0,-99.9,29.93,SSE,160,5.0,8.0,-999,-99.99,,,-99.99,,2013-07-22 05:02:00,
2013-07-22 00:12:00,66.0,-99.9,29.93,SSE,160,5.0,8.0,-999,-99.99,,,-99.99,,2013-07-22 05:12:00,
2013-07-22 00:22:00,66.0,-99.9,29.93,SSE,160,5.0,8.0,-999,-99.99,,,-99.99,,2013-07-22 05:22:00,
2013-07-22 00:32:00,66.0,-99.9,29.93,SSE,160,5.0,8.0,-999,-99.99,,,-99.99,,2013-07-22 05:32:00,
2013-07-22 00:40:00,63.0,-99.9,29.93,South,190,1.0,2.0,-999,-99.99,,,-99.99,,2013-07-22 05:40:00,
2013-07-22 01:01:00,63.0,-99.9,29.93,South,190,1.0,2.0,-999,-99.99,,,-99.99,,2013-07-22 06:01:00,
2013-07-22 01:22:00,63.0,-99.9,29.93,South,190,1.0,2.0,-999,-99.99,,,-99.99,,2013-07-22 06:22:00,
2013-07-22 01:40:00,63.0,-99.9,29.91,South,180,3.0,5.0,-999,-99.99,,,-99.99,,2013-07-22 06:40:00,
2013-07-22 02:01:00,63.0,-99.9,29.91,South,180,3.0,5.0,-999,-99.99,,,-99.99,,2013-07-22 07:01:00,
2013-07-22 02:12:00,63.0,-99.9,29.91,South,180,3.0,5.0,-999,-99.99,,,-99.99,,2013-07-22 07:12:00,
2013-07-22 02:22:00,63.0,-99.9,29.91,South,180,3.0,5.0,-999,-99.99,,,-99.99,,2013-07-22 07:22:00,
2013-07-22 02:33:00,63.0,-99.9,29.91,South,180,3.0,5.0,-999,-99.99,,,-99.99,,2013-07-22 07:33:00,
2013-07-22 02:40:00,63.0,-99.9,29.88,SSE,160,3.0,5.0,-999,-99.99,,,-99.99,,2013-07-22 07:40:00,
2013-07-22 03:02:00,63.0,-99.9,29.88,SSE,160,3.0,5.0,-999,-99.99,,,-99.99,,2013-07-22 08:02:00,
2013-07-22 03:11:00,63.0,-99.9,29.88,SSE,160,3.0,5.0,-999,-99.99,,,-99.99,,2013-07-22 08:11:00,
2013-07-22 03:22:00,63.0,-99.9,29.88,SSE,160,3.0,5.0,-999,-99.99,,,-99.99,,2013-07-22 08:22:00,
2013-07-22 03:32:00,63.0,-99.9,29.88,SSE,160,3.0,5.0,-999,-99.99,,,-99.99,,2013-07-22 08:32:00,
2013-07-22 03:40:00,63.0,-99.9,29.88,South,180,3.0,5.0,-999,-99.99,,,-99.99,,2013-07-22 08:40:00,
2013-07-22 04:02:00,63.0,-99.9,29.88,South,180,3.0,5.0,-999,-99.99,,,-99.99,,2013-07-22 09:02:00,
2013-07-22 04:11:00,63.0,-99.9,29.88,South,180,3.0,5.0,-999,-99.99,,,-99.99,,2013-07-22 09:11:00,
2013-07-22 04:22:00,63.0,-99.9,29.88,South,180,3.0,5.0,-999,-99.99,,,-99.99,,2013-07-22 09:22:00,
2013-07-22 04:33:00,63.0,-99.9,29.88,South,180,3.0,5.0,-999,-99.99,,,-99.99,,2013-07-22 09:33:00,
2013-07-22 04:40:00,63.0,-99.9,29.86,South,190,3.0,5.0,-999,-99.99,,,-99.99,,2013-07-22 09:40:00,
2013-07-22 05:02:00,63.0,-99.9,29.86,South,190,3.0,5.0,-999,-99.99,,,-99.99,,2013-07-22 10:02:00,
2013-07-22 05:11:00,63.0,-99.9,29.86,South,190,3.0,5.0,-999,-99.99,,,-99.99,,2013-07-22 10:11:00,
2013-07-22 05:22:00,63.0,-99.9,29.86,South,190,3.0,5.0,-999,-99.99,,,-99.99,,2013-07-22 10:22:00,
2013-07-22 05:40:00,63.0,-99.9,29.85,South,180,5.0,6.0,-999,-99.99,,,-99.99,,2013-07-22 10:40:00,
2013-07-22 06:02:00,63.0,-99.9,29.85,South,180,5.0,6.0,-999,-99.99,,,-99.99,,2013-07-22 11:02:00,
2013-07-22 06:11:00,63.0,-99.9,29.85,South,180,5.0,6.0,-999,-99.99,,,-99.99,,2013-07-22 11:11:00,
2013-07-22 06:23:00,63.0,-99.9,29.85,South,180,5.0,6.0,-999,-99.99,,,-99.99,,2013-07-22 11:23:00,
2013-07-22 06:32:00,63.0,-99.9,29.85,South,180,5.0,6.0,-999,-99.99,,,-99.99,,2013-07-22 11:32:00,
2013-07-22 06:40:00,65.0,-99.9,29.85,SSW,210,2.0,5.0,-999,-99.99,,,-99.99,,2013-07-22 11:40:00,
2013-07-22 07:02:00,65.0,-99.9,29.85,SSW,210,2.0,5.0,-999,-99.99,,,-99.99,,2013-07-22 12:02:00,
2013-07-22 07:12:00,65.0,-99.9,29.85,SSW,210,2.0,5.0,-999,-99.99,,,-99.99,,2013-07-22 12:12:00,
2013-07-22 07:22:00,65.0,-99.9,29.85,SSW,210,2.0,5.0,-999,-99.99,,,-99.99,,2013-07-22 12:22:00,
2013-07-22 07:33:00,65.0,-99.9,29.85,SSW,210,2.0,5.0,-999,-99.99,,,-99.99,,2013-07-22 12:33:00,
2013-07-22 07:40:00,68.0,-99.9,29.85,SSE,160,2.0,6.0,-999,-99.99,,,-99.99,,2013-07-22 12:40:00,
2013-07-22 08:01:00,68.0,-99.9,29.85,SSE,160,2.0,6.0,-999,-99.99,,,-99.99,,2013-07-22 13:01:00,
2013-07-22 08:11:00,68.0,-99.9,29.85,SSE,160,2.0,6.0,-999,-99.99,,,-99.99,,2013-07-22 13:11:00,
2013-07-22 08:22:00,68.0,-99.9,29.85,SSE,160,2.0,6.0,-999,-99.99,,,-99.99,,2013-07-22 13:22:00,
2013-07-22 08:32:00,68.0,-99.9,29.85,SSE,160,2.0,6.0,-999,-99.99,,,-99.99,,2013-07-22 13:32:00,
2013-07-22 08:40:00,71.0,-99.9,29.83,SSE,160,7.0,10.0,-999,-99.99,,,-99.99,,2013-07-22 13:40:00,
2013-07-22 09:02:00,71.0,-99.9,29.83,SSE,160,7.0,10.0,-999,-99.99,,,-99.99,,2013-07-22 14:02:00,
2013-07-22 09:11:00,71.0,-99.9,29.83,SSE,160,7.0,10.0,-999,-99.99,,,-99.99,,2013-07-22 14:11:00,
2013-07-22 09:22:00,71.0,-99.9,29.83,SSE,160,7.0,10.0,-999,-99.99,,,-99.99,,2013-07-22 14:22:00,
2013-07-22 09:32:00,71.0,-99.9,29.83,SSE,160,7.0,10.0,-999,-99.99,,,-99.99,,2013-07-22 14:32:00,
2013-07-22 09:40:00,70.0,-99.9,29.81,SSE,160,10.0,15.0,-999,-99.99,,,-99.99,,2013-07-22 14:40:00,
2013-07-22 10:02:00,70.0,-99.9,29.81,SSE,160,10.0,15.0,-999,-99.99,,,-99.99,,2013-07-22 15:02:00,
2013-07-22 10:12:00,70.0,-99.9,29.81,SSE,160,10.0,15.0,-999,-99.99,,,-99.99,,2013-07-22 15:12:00,
2013-07-22 10:22:00,70.0,-99.9,29.81,SSE,160,10.0,15.0,-999,-99.99,,,-99.99,,2013-07-22 15:22:00,
2013-07-22 10:33:00,70.0,-99.9,29.81,SSE,160,10.0,15.0,-999,-99.99,,,-99.99,,2013-07-22 15:33:00,
2013-07-22 10:40:00,70.0,-99.9,29.80,SSE,150,12.0,15.0,-999,-99.99,,,-99.99,,2013-07-22 15:40:00,
2013-07-22 11:01:00,70.0,-99.9,29.80,SSE,150,12.0,15.0,-999,-99.99,,,-99.99,,2013-07-22 16:01:00,
2013-07-22 11:12:00,70.0,-99.9,29.80,SSE,150,12.0,15.0,-999,-99.99,,,-99.99,,2013-07-22 16:12:00,
2013-07-22 11:22:00,70.0,-99.9,29.80,SSE,150,12.0,15.0,-999,-99.99,,,-99.99,,2013-07-22 16:22:00,
2013-07-22 11:32:00,70.0,-99.9,29.80,SSE,150,12.0,15.0,-999,-99.99,,,-99.99,,2013-07-22 16:32:00,
2013-07-22 11:40:00,71.0,-99.9,29.79,SSE,150,10.0,20.0,-999,-99.99,,,-99.99,,2013-07-22 16:40:00,
2013-07-22 12:02:00,71.0,-99.9,29.79,SSE,150,10.0,20.0,-999,-99.99,,,-99.99,,2013-07-22 17:02:00,
2013-07-22 12:11:00,71.0,-99.9,29.79,SSE,150,10.0,20.0,-999,-99.99,,,-99.99,,2013-07-22 17:11:00,
2013-07-22 12:23:00,71.0,-99.9,29.79,SSE,150,10.0,20.0,-999,-99.99,,,-99.99,,2013-07-22 17:23:00,
2013-07-22 12:33:00,71.0,-99.9,29.79,SSE,150,10.0,20.0,-999,-99.99,,,-99.99,,2013-07-22 17:33:00,
2013-07-22 12:40:00,71.0,-99.9,29.77,SSE,150,14.0,18.0,-999,-99.99,,,-99.99,,2013-07-22 17:40:00,
2013-07-22 13:05:00,71.0,-99.9,29.77,SSE,150,14.0,18.0,-999,-99.99,,,-99.99,,2013-07-22 18:05:00,
2013-07-22 13:29:00,71.0,-99.9,29.77,SSE,150,14.0,18.0,-999,-99.99,,,-99.99,,2013-07-22 18:29:00,
2013-07-22 14:06:00,72.0,-99.9,29.76,SSE,150,13.0,20.0,-999,-99.99,,,-99.99,,2013-07-22 19:06:00,
2013-07-22 14:37:00,72.0,-99.9,29.76,SSE,150,13.0,20.0,-999,-99.99,,,-99.99,,2013-07-22 19:37:00,
2013-07-22 14:40:00,74.0,-99.9,29.72,SSE,150,13.0,20.0,-999,-99.99,,,-99.99,,2013-07-22 19:40:00,
2013-07-22 15:05:00,74.0,-99.9,29.72,SSE,150,13.0,20.0,-999,-99.99,,,-99.99,,2013-07-22 20:05:00,
2013-07-22 15:17:00,74.0,-99.9,29.72,SSE,150,13.0,20.0,-999,-99.99,,,-99.99,,2013-07-22 20:17:00,
2013-07-22 15:22:00,74.0,-99.9,29.72,SSE,150,13.0,20.0,-999,-99.99,,,-99.99,,2013-07-22 20:22:00,
2013-07-22 15:33:00,74.0,-99.9,29.72,SSE,150,13.0,20.0,-999,-99.99,,,-99.99,,2013-07-22 20:33:00,
2013-07-22 15:40:00,74.0,-99.9,29.70,South,170,9.0,20.0,-999,-99.99,,,-99.99,,2013-07-22 20:40:00,
2013-07-22 16:01:00,74.0,-99.9,29.70,South,170,9.0,20.0,-999,-99.99,,,-99.99,,2013-07-22 21:01:00,
2013-07-22 16:12:00,74.0,-99.9,29.70,South,170,9.0,20.0,-999,-99.99,,,-99.99,,2013-07-22 21:12:00,
2013-07-22 16:22:00,74.0,-99.9,29.70,South,170,9.0,20.0,-999,-99.99,,,-99.99,,2013-07-22 21:22:00,
2013-07-22 16:33:00,74.0,-99.9,29.70,South,170,9.0,20.0,-999,-99.99,,,-99.99,,2013-07-22 21:33:00,
2013-07-22 16:40:00,73.0,-99.9,29.69,SSE,160,13.0,20.0,-999,-99.99,,,-99.99,,2013-07-22 21:40:00,
2013-07-22 17:02:00,73.0,-99.9,29.69,SSE,160,13.0,20.0,-999,-99.99,,,-99.99,,2013-07-22 22:02:00,
2013-07-22 17:11:00,73.0,-99.9,29.69,SSE,160,13.0,20.0,-999,-99.99,,,-99.99,,2013-07-22 22:11:00,
2013-07-22 17:22:00,73.0,-99.9,29.69,SSE,160,13.0,20.0,-999,-99.99,,,-99.99,,2013-07-22 22:22:00,
2013-07-22 17:32:00,73.0,-99.9,29.69,SSE,160,13.0,20.0,-999,-99.99,,,-99.99,,2013-07-22 22:32:00,
2013-07-22 17:40:00,72.0,-99.9,29.68,SSE,160,12.0,18.0,-999,-99.99,,,-99.99,,2013-07-22 22:40:00,
2013-07-22 18:02:00,72.0,-99.9,29.68,SSE,160,12.0,18.0,-999,-99.99,,,-99.99,,2013-07-22 23:02:00,
2013-07-22 18:11:00,72.0,-99.9,29.68,SSE,160,12.0,18.0,-999,-99.99,,,-99.99,,2013-07-22 23:11:00,
2013-07-22 18:22:00,72.0,-99.9,29.68,SSE,160,12.0,18.0,-999,-99.99,,,-99.99,,2013-07-22 23:22:00,
2013-07-22 18:30:00,72.0,-99.9,29.65,SSE,160,9.0,18.0,-999,-99.99,,,-99.99,,2013-07-22 23:30:00,
2013-07-22 18:32:00,72.0,-99.9,29.68,SSE,160,12.0,18.0,-999,-99.99,,,-99.99,,2013-07-22 23:32:00,
2013-07-22 19:01:00,72.0,-99.9,29.65,SSE,160,9.0,18.0,-999,-99.99,,,-99.99,,2013-07-23 00:01:00,
2013-07-22 19:12:00,72.0,-99.9,29.65,SSE,160,9.0,18.0,-999,-99.99,,,-99.99,,2013-07-23 00:12:00,
2013-07-22 19:22:00,72.0,-99.9,29.65,SSE,160,9.0,18.0,-999,-99.99,,,-99.99,,2013-07-23 00:22:00,
2013-07-22 19:40:00,72.0,-99.9,29.65,SSE,160,12.0,22.0,-999,-99.99,,,-99.99,,2013-07-23 00:40:00,
2013-07-22 20:01:00,72.0,-99.9,29.65,SSE,160,12.0,22.0,-999,-99.99,,,-99.99,,2013-07-23 01:01:00,
2013-07-22 20:11:00,72.0,-99.9,29.65,SSE,160,12.0,22.0,-999,-99.99,,,-99.99,,2013-07-23 01:11:00,
2013-07-22 20:22:00,72.0,-99.9,29.65,SSE,160,12.0,22.0,-999,-99.99,,,-99.99,,2013-07-23 01:22:00,
2013-07-22 20:32:00,72.0,-99.9,29.65,SSE,160,12.0,22.0,-999,-99.99,,,-99.99,,2013-07-23 01:32:00,
2013-07-22 20:40:00,71.0,-99.9,29.64,South,170,7.0,16.0,-999,-99.99,,,-99.99,,2013-07-23 01:40:00,
2013-07-22 21:02:00,71.0,-99.9,29.64,South,170,7.0,16.0,-999,-99.99,,,-99.99,,2013-07-23 02:02:00,
2013-07-22 21:11:00,71.0,-99.9,29.64,South,170,7.0,16.0,-999,-99.99,,,-99.99,,2013-07-23 02:11:00,
2013-07-22 21:22:00,71.0,-99.9,29.64,South,170,7.0,16.0,-999,-99.99,,,-99.99,,2013-07-23 02:22:00,
2013-07-22 21:33:00,71.0,-99.9,29.64,South,170,7.0,16.0,-999,-99.99,,,-99.99,,2013-07-23 02:33:00,
2013-07-22 21:40:00,70.0,-99.9,29.58,SSE,150,13.0,18.0,-999,-99.99,,,-99.99,,2013-07-23 02:40:00,
2013-07-22 22:02:00,70.0,-99.9,29.58,SSE,150,13.0,18.0,-999,-99.99,,,-99.99,,2013-07-23 03:02:00,
2013-07-22 22:11:00,70.0,-99.9,29.58,SSE,150,13.0,18.0,-999,-99.99,,,-99.99,,2013-07-23 03:11:00,
2013-07-22 22:22:00,70.0,-99.9,29.58,SSE,150,13.0,18.0,-999,-99.99,,,-99.99,,2013-07-23 03:22:00,
2013-07-22 22:33:00,70.0,-99.9,29.58,SSE,150,13.0,18.0,-999,-99.99,,,-99.99,,2013-07-23 03:33:00,
2013-07-22 22:40:00,74.0,-99.9,29.66,WNW,300,5.0,10.0,-999,-99.99,,,-99.99,,2013-07-23 03:40:00,
2013-07-22 23:11:00,74.0,-99.9,29.66,WNW,300,5.0,10.0,-999,-99.99,,,-99.99,,2013-07-23 04:11:00,
2013-07-22 23:22:00,74.0,-99.9,29.66,WNW,300,5.0,10.0,-999,-99.99,,,-99.99,,2013-07-23 04:22:00,
2013-07-22 23:32:00,74.0,-99.9,29.66,WNW,300,5.0,10.0,-999,-99.99,,,-99.99,,2013-07-23 04:32:00,
2013-07-22 23:44:00,74.0,-99.9,29.67,NW,320,22.0,33.0,-999,-99.99,,,-99.99,,2013-07-23 04:44:00,